User: anonymous   Login
Location: State Camp
(41.2367°N, 77.7828°W)
Time: 23:33:28
(UTC-04:00)
Language:

Lacrosse 5 - Orbit

View from above orbital plane
View from above orbital plane
View from above satellite
View from above satellite

Ground track
Ground track

The orbit data is extracted from the following two-line orbital elements,

1 28646U 05016A   16151.91967295 0.00000000  00000-0  00000-0 0    03
2 28646  57.0130 112.5829 0004500 131.0994 228.9006 14.52127232    04
Epoch (UTC): 30 May 2016 22:04:19
Eccentricity: 0.0004500
inclination: 57.0130°
perigee height: 715 km
apogee height: 722 km
right ascension of ascending node: 112.5829°
argument of perigee: 131.0994°
revolutions per day: 14.52127232
mean anomaly at epoch: 228.9006°
orbit number at epoch: 0

The dashed part of the orbit path shows where the satellite is in the earth's shadow,  

DLR